COSMOS 1190

导读

COSMOS 1190(宇宙1190)是独联体(CIS)继承自苏联航天遗产的一颗卫星,于1980年7月1日08:00发射升空,属于苏联“宇宙”系列卫星家族。“宇宙”系列卫星涵盖军民用途,覆盖科学试验、遥感侦察、航天技术验证等领域,该卫星的发射延续了苏联在冷战时期的空间探索进程,为独联体后续航天发展积累了技术基础。

基本信息
目录编号:
11869
目录名称:
COSMOS 1190
国际标识:
1980-056A
轨道中心:
EARTH
卫星名称:
COSMOS 1190
卫星全名:
--
卫星状态:
在轨 (已飞行16828 天)
发射日期:
1980-07-01 UTC
国别 :
俄罗斯(独联体) (CIS)
星等 :
--
轨道信息
数据来源 国际轨道数据 AOE轨道数据
星历时间 2026-07-28T01:15:53+0800
15小时前
查看轨道信息
2026-07-22T07:00:00+0800
6天前
查看轨道信息
半长轴 7154.317km 7154.324km
偏心率 0.001304 0.0013175
轨道倾角 74.048° 74.048°
近地点辐角 158.036° 170.048°
升交点赤经 321.843° 332.387°
平近点角 202.136° 327.560°
近地点 766.85km 766.761km
远地点 785.51km 785.613km
周期 100.372分钟 100.372分钟
每日圈数 14.34665 14.346629
详细信息
使用方式:
暂无
2D轨道图
3D轨道图
轨道高度分析图
轨道倾角分析图
轨道综合分析图
查看轨道综合分析图